Evans Head Observation History
Time Wind Speed Temp Pressure Rel. Hum Rain
22/01:00pm SSE 34-47 kts 26.0°c 1011.1 hPa 55% 1.0mm
22/12:30pm SSE 33-43 kts 25.9°c 1011.2 hPa 62% 1.0mm
22/12:00pm SSE 31-44 kts 24.1°c 1011.1 hPa 69% 1.0mm
22/11:30am SSE 27-38 kts 21.7°c 1011.2 hPa 86% 1.0mm
22/11:00am SSE 25-35 kts 24.7°c 1011.3 hPa 73% 0.2mm
22/10:30am SSE 27-39 kts 22.5°c 1011.5 hPa 83% 0.2mm
22/10:02am SSE 28-38 kts 26.4°c 1011.5 hPa 61% 0.0mm
22/10:00am SSE 29-38 kts 25.9°c 1011.4 hPa 59% 0.0mm
22/09:30am SSE 27-38 kts 24.1°c 1011.2 hPa 65% 0.0mm
22/09:00am SSE 28-40 kts 25.7°c 1011.0 hPa 59% 8.2mm
22/08:30am SE 27-37 kts 25.0°c 1010.8 hPa 64% 8.2mm
22/08:00am SSE 26-36 kts 24.5°c 1010.7 hPa 63% 8.2mm
22/07:32am SSE 27-37 kts 24.4°c 1010.5 hPa 68% 8.2mm
22/07:30am SSE 28-37 kts 24.4°c 1010.5 hPa 67% 8.2mm
22/07:00am SSE 31-42 kts 22.9°c 1010.2 hPa 78% 8.2mm
22/06:30am SE 25-37 kts 23.8°c 1010.1 hPa 77% 8.0mm
22/06:03am SE 23-33 kts 24.0°c 1009.9 hPa 74% 8.0mm
22/06:00am SE 23-31 kts 23.9°c 1009.9 hPa 74% 8.0mm
22/05:34am SE 24-34 kts 23.8°c 1009.8 hPa 74% 8.0mm
22/05:30am SE 26-33 kts 23.9°c 1009.8 hPa 73% 8.0mm
22/05:11am SE 26-36 kts 23.9°c 1009.8 hPa 74% 8.0mm
22/05:00am SE 28-35 kts 23.8°c 1009.7 hPa 71% 8.0mm
22/04:30am SE 28-40 kts 23.7°c 1009.6 hPa 73% 8.0mm
22/04:00am SE 27-38 kts 23.3°c 1009.6 hPa 81% 8.0mm
22/03:30am SSE 26-37 kts 22.2°c 1009.9 hPa 89% 8.0mm
22/03:08am SSE 24-38 kts 23.7°c 1009.9 hPa 80% 7.6mm
22/03:00am SSE 23-31 kts 23.8°c 1010.2 hPa 80% 7.6mm
22/02:30am SE 25-35 kts 24.1°c 1010.3 hPa 78% 7.6mm
22/02:00am SE 25-36 kts 24.3°c 1010.5 hPa 78% 7.6mm
22/01:30am SSE 24-35 kts 24.2°c 1010.5 hPa 80% 7.6mm
22/01:02am SE 25-35 kts 24.0°c 1010.8 hPa 82% 7.6mm
22/01:00am SE 26-35 kts 24.1°c 1010.7 hPa 82% 7.6mm
22/12:30am SSE 26-37 kts 23.9°c 1010.9 hPa 85% 7.6mm
22/12:22am SSE 24-35 kts 23.8°c 1010.9 hPa 87% 7.6mm
22/12:00am SE 25-33 kts 23.3°c 1011.0 hPa 92% 7.6mm
Time Wind Speed Temp Pressure Rel. Hum Rain
21/11:36pm SE 18-29 kts 22.9°c 1010.9 hPa 97% 7.6mm
21/11:30pm SE 19-26 kts 22.8°c 1011.0 hPa 96% 7.6mm
21/11:00pm SE 26-36 kts 22.3°c 1011.2 hPa 96% 6.4mm
21/10:31pm SSE 22-32 kts 22.6°c 1011.1 hPa 94% 3.2mm
21/10:30pm SSE 21-32 kts 22.7°c 1011.1 hPa 94% 3.0mm
21/10:23pm SSE 15-32 kts 23.4°c 1011.0 hPa 92% 1.6mm
21/10:00pm SSE 14-21 kts 23.8°c 1011.3 hPa 92% 1.4mm
21/09:57pm SSE 15-21 kts 23.7°c 1011.2 hPa 92% 1.4mm
21/09:30pm S 8-11 kts 23.4°c 1011.0 hPa 92% 0.4mm
21/09:00pm SSE 8-12 kts 23.3°c 1010.8 hPa 92% 0.4mm
21/08:30pm SSE 18-28 kts 23.3°c 1010.4 hPa 84% 0.0mm
21/08:24pm SE 15-28 kts 25.1°c 1010.4 hPa 80% 0.0mm
21/08:00pm SSE 12-17 kts 24.5°c 1010.3 hPa 86% 0.0mm
21/07:30pm SSE 17-24 kts 24.2°c 1010.0 hPa 85% 0.0mm
21/07:00pm SE 16-22 kts 25.6°c 1009.6 hPa 76% 0.0mm
21/06:30pm SE 15-19 kts 26.0°c 1009.1 hPa 75% 0.0mm
21/06:00pm SSE 17-23 kts 26.6°c 1008.9 hPa 74% 0.0mm
21/05:42pm SSE 19-29 kts 25.9°c 1008.9 hPa 73% 0.0mm
21/05:30pm SSE 21-29 kts 26.5°c 1008.8 hPa 72% 0.0mm
21/05:17pm SSE 20-30 kts 27.1°c 1008.7 hPa 68% 0.0mm
21/05:00pm SSE 20-27 kts 27.3°c 1008.6 hPa 68% 0.0mm
21/04:30pm SSE 19-25 kts 27.7°c 1008.6 hPa 67% 0.0mm
21/04:00pm SSE 17-23 kts 29.2°c 1008.6 hPa 61% 0.0mm
21/03:30pm SSE 18-23 kts 29.6°c 1008.9 hPa 60% 0.0mm
21/03:00pm SE 14-20 kts 30.9°c 1009.3 hPa 56% 0.0mm
21/02:30pm SE 17-21 kts 30.1°c 1009.6 hPa 59% 0.0mm
21/02:00pm SSE 16-21 kts 30.5°c 1009.7 hPa 59% 0.0mm
21/01:30pm SE 16-22 kts 29.9°c 1009.8 hPa 60% 0.0mm
21/01:00pm SE 16-22 kts 30.3°c 1010.0 hPa 59% 0.0mm
21/12:30pm SE 14-19 kts 31.5°c 1010.3 hPa 57% 0.0mm
21/12:00pm SE 16-21 kts 31.0°c 1010.5 hPa 61% 0.0mm
21/11:30am SE 16-20 kts 30.1°c 1010.5 hPa 62% 0.0mm
21/11:00am SE 14-20 kts 28.6°c 1010.4 hPa 67% 0.0mm
21/10:30am SE 12-16 kts 27.7°c 1010.3 hPa 73% 0.0mm
21/10:00am SE 10-14 kts 26.8°c 1010.1 hPa 74% 0.0mm
21/09:30am SE 9-12 kts 26.9°c 1010.0 hPa 72% 0.0mm
21/09:00am ESE 11-16 kts 25.8°c 1009.7 hPa 77% 0.0mm
21/08:30am SE 10-19 kts 27.1°c 1009.4 hPa 76% 0.0mm
21/08:00am SSW 5-7 kts 24.1°c 1009.1 hPa 89% 0.0mm
21/07:30am SW 6-8 kts 22.8°c 1008.8 hPa 92% 0.0mm
21/07:00am S 4-7 kts 22.1°c 1008.7 hPa 93% 0.0mm
21/06:30am SW 5-9 kts 21.7°c 1008.3 hPa 92% 0.0mm
21/06:00am SSW 7-11 kts 21.9°c 1007.8 hPa 91% 0.0mm
21/05:30am SW 7-12 kts 21.9°c 1007.5 hPa 88% 0.0mm
21/05:00am SSW 8-11 kts 21.9°c 1007.3 hPa 87% 0.0mm
21/04:30am SSW 8-12 kts 22.0°c 1007.5 hPa 87% 0.0mm
21/04:00am SSW 7-11 kts 22.2°c 1007.6 hPa 87% 0.0mm
21/03:30am SSW 8-12 kts 22.4°c 1007.6 hPa 89% 0.0mm
21/03:00am SSW 7-11 kts 22.7°c 1007.6 hPa 91% 0.0mm
21/02:30am S 11-16 kts 23.1°c 1007.8 hPa 90% 0.0mm
21/02:00am W 1-6 kts 24.0°c 1007.8 hPa 87% 0.0mm
21/01:30am W 4-6 kts 24.2°c 1007.9 hPa 87% 0.0mm
21/01:00am ESE 5-8 kts 24.5°c 1008.4 hPa 87% 0.0mm
21/12:30am ESE 9-11 kts 24.6°c 1008.6 hPa 86% 0.0mm
21/12:00am SSE 7-9 kts 24.5°c 1009.5 hPa 85% 0.0mm
Time Wind Speed Temp Pressure Rel. Hum Rain
20/11:30pm S 9-13 kts 24.9°c 1010.3 hPa 82% 0.0mm
20/11:00pm SSE 11-15 kts 25.0°c 1010.5 hPa 84% 0.0mm
20/10:30pm SSE 10-14 kts 25.1°c 1010.4 hPa 84% 0.0mm
20/10:00pm SE 9-12 kts 24.7°c 1009.7 hPa 84% 0.0mm
20/09:30pm SE 9-12 kts 24.7°c 1009.1 hPa 84% 0.0mm
20/09:00pm SE 7-10 kts 25.1°c 1008.8 hPa 82% 0.0mm
20/08:30pm ESE 8-11 kts 25.0°c 1008.0 hPa 82% 0.0mm
20/08:00pm E 7-9 kts 24.9°c 1007.4 hPa 81% 0.0mm
20/07:30pm E 7-10 kts 25.2°c 1006.7 hPa 80% 0.0mm
20/07:00pm ENE 9-13 kts 25.4°c 1006.2 hPa 77% 0.0mm
20/06:30pm ENE 9-13 kts 26.0°c 1006.0 hPa 72% 0.0mm
20/06:00pm ENE 10-15 kts 26.6°c 1005.9 hPa 70% 0.0mm
20/05:30pm ENE 9-13 kts 27.5°c 1005.8 hPa 66% 0.0mm
20/05:00pm E 11-15 kts 27.9°c 1005.8 hPa 61% 0.0mm
20/04:30pm E 11-15 kts 28.2°c 1006.0 hPa 62% 0.0mm
20/04:00pm E 12-15 kts 28.2°c 1006.3 hPa 60% 0.0mm
20/03:30pm E 11-16 kts 29.0°c 1006.6 hPa 59% 0.0mm
20/03:00pm ESE 11-15 kts 29.2°c 1007.0 hPa 58% 0.0mm
20/02:30pm E 11-16 kts 29.7°c 1007.4 hPa 57% 0.0mm
20/02:00pm SE 11-15 kts 30.7°c 1007.9 hPa 54% 0.0mm
20/01:30pm ESE 13-15 kts 29.4°c 1008.3 hPa 57% 0.0mm
20/01:00pm ESE 12-15 kts 29.7°c 1008.4 hPa 56% 0.0mm
20/12:30pm SE 11-15 kts 30.2°c 1008.9 hPa 56% 0.0mm
20/12:00pm SE 11-14 kts 29.5°c 1009.3 hPa 57% 0.0mm
20/11:30am SE 9-15 kts 30.5°c 1009.6 hPa 58% 0.0mm
20/11:00am ESE 10-12 kts 29.3°c 1009.8 hPa 59% 0.0mm
20/10:30am SE 9-12 kts 28.5°c 1009.8 hPa 60% 0.0mm
20/10:00am SSE 9-12 kts 28.3°c 1009.9 hPa 61% 0.0mm
20/09:30am SE 8-11 kts 28.3°c 1009.8 hPa 62% 0.0mm
20/09:00am S 5-8 kts 27.0°c 1009.6 hPa 73% 0.0mm
20/08:30am SSW 4-7 kts 25.1°c 1009.5 hPa 83% 0.0mm
20/08:00am SSW 4-6 kts 23.8°c 1009.3 hPa 88% 0.0mm
20/07:30am SW 5-7 kts 22.6°c 1009.1 hPa 92% 0.0mm
20/07:00am SW 6-7 kts 22.1°c 1008.8 hPa 93% 0.0mm
20/06:30am SW 5-6 kts 22.2°c 1008.5 hPa 92% 0.0mm
20/06:00am S 1-3 kts 22.8°c 1008.2 hPa 88% 0.0mm
20/05:30am CALM 0 kts 23.0°c 1008.0 hPa 88% 0.0mm
20/05:00am NE 3-5 kts 23.3°c 1007.7 hPa 87% 0.0mm
20/04:30am E 5-7 kts 23.3°c 1007.5 hPa 87% 0.0mm
20/04:00am E 7-9 kts 23.6°c 1007.6 hPa 87% 0.0mm
20/03:30am E 8-10 kts 23.5°c 1007.7 hPa 87% 0.0mm
20/03:00am E 9-12 kts 23.9°c 1007.9 hPa 87% 0.0mm
20/02:30am ENE 9-13 kts 24.0°c 1007.8 hPa 87% 0.0mm
20/02:00am ENE 9-12 kts 23.9°c 1007.8 hPa 89% 0.0mm
20/01:30am E 7-10 kts 23.5°c 1008.2 hPa 91% 0.0mm
20/01:00am ENE 6-7 kts 23.3°c 1008.2 hPa 90% 0.0mm
20/12:30am NE 5-7 kts 23.1°c 1008.1 hPa 89% 0.0mm
20/12:00am N 5-7 kts 22.9°c 1007.8 hPa 88% 0.0mm